Location: Asbacherhof
(48.8543°N, 10.7903°E)
Time: 21:55:47
(UTC+00:00)

Cosmos 1271 Rocket - Pass Details

Date: 26 May 2022
Orbit: 495 x 539 km, 81.2° (Epoch: 29 June)

Event Time Altitude Azimuth Distance (km) Brightness Sun altitude
Rises 02:24:53 0° 337° (NNW) 2,625 6.6 -8.1°
Reaches altitude 10° 02:27:14 10° 325° (NW) 1,741 5.5 -7.9°
Maximum altitude 02:30:25 25° 268° (W) 1,062 3.9 -7.5°
Drops below altitude 10° 02:33:37 10° 212° (SSW) 1,750 4.8 -7.1°
Enters shadow 02:34:05 - 208° (SSW) 1,913 5.0 -7.1°
